Location: Newark
(48.4472°N, 1.4892°E)
Time: 23:28:13
(UTC+00:00)

A-11 Canister half - Visible Passes

Search period start: 14 November 2019 00:00
Search period end: 24 November 2019 00:00
Orbit: 1514 x 1686 km, 47.2° (Epoch: 13 November)

Date Brightness Start Highest point End Pass type
(mag) Time Alt. Az. Time Alt. Az. Time Alt. Az.
14 Nov 9.8 17:55:09 10° SSW 18:03:54 35° SE 18:08:32 24° E visible
14 Nov 9.2 19:57:49 10° WSW 20:06:44 65° SSW 20:06:44 65° SSW visible
14 Nov 10.8 22:02:40 10° W 22:04:57 19° W 22:04:57 19° W visible
15 Nov 9.9 17:32:28 10° SSW 17:41:02 33° SE 17:47:01 19° E visible
15 Nov 9.0 19:34:55 10° WSW 19:44:58 69° SSE 19:45:12 68° SSE visible
15 Nov 10.5 21:39:42 10° W 21:43:25 27° W 21:43:25 27° W visible
16 Nov 10.0 17:09:48 10° SSW 17:18:11 31° SE 17:25:26 14° E visible
16 Nov 9.0 19:12:01 10° SW 19:22:02 67° SSE 19:23:39 60° ESE visible
16 Nov 10.2 21:16:44 10° W 21:21:50 35° W 21:21:50 35° W visible
17 Nov 10.1 16:47:09 10° S 16:55:20 30° SE 17:03:36 10° E visible
17 Nov 9.1 18:49:08 10° SW 18:59:06 65° SSE 19:02:02 48° E visible
17 Nov 9.8 20:53:46 10° W 21:00:14 46° W 21:00:14 46° W visible
18 Nov 9.2 18:26:16 10° SW 18:36:11 63° SSE 18:40:23 38° E visible
18 Nov 9.4 20:30:49 10° W 20:38:36 59° WSW 20:38:36 59° WSW visible
18 Nov 11.1 22:35:56 10° WNW 22:36:47 13° W 22:36:47 13° W visible
19 Nov 9.3 18:03:24 10° SW 18:13:16 61° SSE 18:18:44 30° E visible
19 Nov 9.1 20:07:51 10° W 20:16:56 74° WSW 20:16:56 74° WSW visible
19 Nov 10.9 22:12:58 10° WNW 22:15:07 19° W 22:15:07 19° W visible
20 Nov 9.3 17:40:32 10° SW 17:50:20 59° SSE 17:57:03 23° E visible
20 Nov 9.0 19:44:55 10° W 19:55:07 84° S 19:55:15 84° SSE visible
20 Nov 10.6 21:50:01 10° W 21:53:26 25° W 21:53:26 25° W visible
21 Nov 9.4 17:17:41 10° SW 17:27:25 57° SSE 17:35:21 17° E visible
21 Nov 8.9 19:21:57 10° W 19:32:09 84° S 19:33:33 71° ESE visible
21 Nov 10.3 21:27:02 10° W 21:31:44 32° W 21:31:44 32° W visible
22 Nov 9.5 16:54:52 10° SW 17:04:31 55° SSE 17:13:39 12° ENE visible
22 Nov 9.0 18:59:01 10° WSW 19:09:11 83° S 19:11:50 57° E visible
22 Nov 10.0 21:04:05 10° W 21:10:02 41° W 21:10:02 41° W visible
23 Nov 9.6 16:32:02 10° SW 16:41:36 53° SSE 16:51:21 10° ENE visible
23 Nov 9.1 18:36:05 10° WSW 18:46:14 82° S 18:50:08 45° E visible
23 Nov 9.6 20:41:08 10° W 20:48:19 52° W 20:48:19 52° W visible
23 Nov 11.3 22:46:18 10° WNW 22:46:31 11° WNW 22:46:31 11° WNW visible
